STARLINK-36062, 66794

Orbit data source: Space-Track

STARLINK-36062, 66794 is a payload satellite owned by SpaceX/Seattle (US) in LEO that was launched on Mon, 01 Dec 2025 UTC via an FALCON 9 launch vehicle from the Air Force Eastern Test Range (AFETR). Payload-class satellites include a variety of spacecraft equipped with specific instruments for various scientific and technological missions. These include communications satellites like Starlink; space stations such as the ISS; scientific satellites like the Hubble; Earth observation satellites from companies like Planet Labs, Umbra, and HawkEye 360; GPS; miniature CubeSats for education and research; and military/defense satellites.

Loading next visibility...
Identifier
66794, 2025-278D
Orbit
LEO
Country
Flag of USUS
Related business
Manufacturer
SpaceX/Seattle
Mission
Operational Commercial Communications
Bus & Motor
STARLINK V2MO, Unknown motor
Mass
575 kg wet, ~530 kg dry
Launch date (UTC)
2025-12-01 (7 months ago)
Launch vehicle
FALCON 9
Launch site
Air Force Eastern Test Range (AFETR)
Object type
Payload
Rocket body
Debris
Shape & HBR
Box + 2 Pan, 17.7 m
Radar Cross Section
36.964 m², Large (>1 m²)

Expand to show TLE details & history
Last TLE update: 1 day ago

TLE from 1 day ago
0 STARLINK-36062
1 66794U 25278D   26170.73796951  .00010561  00000-0  39267-3 0  9992
2 66794  42.9974 258.2665 0001256 262.9641  97.1068 15.27587570 30817
Epoch: 2026-06-19T17:42Z
TLE epoch observation values (Epoch: 2026-06-19T17:42:40.565Z)
Latitude
-0.00001°
Longitude
84.63483°
Altitude
482.908 km
Speed
7.626 km/s
True Right ascension
17h 13m 03s
True Declination
0° 00' 00"
Sunlit
Object was in full shadow at epoch
Visualization orbit readout
Latitude
Unknown
Longitude
Unknown
Altitude
Unknown
Speed
Unknown
Apparent Right ascension
Unknown
Apparent Declination
Unknown
Sunlit
N/A
Visualization observer readout
Local Sidereal Time
07:18:30
Azimuth
Unknown
Elevation
Unknown
Doppler factor
Unknown
Orbital elements
Apogee altitude
485.834 km
Perigee altitude
484.11 km
Semi-major axis
6,863.109 km
Eccentricity
0.00013
Inclination
42.9974°
RAAN
258.2665°
Arg. of periapsis
262.9641°
True anomaly
97.12108°
Mean anomaly
97.1068°
Eccentric anomaly
97.11394°
Mean motion
3.81735 °/min
Orbital period
94.31 mins
BSTAR
0.00039267
Loading maneuver chart data...
Computing Atmospheric mass density...
Loading historical data...
Loading historical data...
Loading historical data...
Loading historical data...
Loading historical data...
Loading historical data...
Loading historical data...

Documentation

Showing up to 5 results
|